• Processing (Info)

  • MPEC 2018-V164: 2004 VV131

    The following Minor Planet Electronic Circular may be linked-to from your own Web pages, but must not otherwise be redistributed electronically.

    A form allowing access to any MPEC is at the bottom of this page.


    Read MPEC 2018-V163 Read MPEC 2018-V165


    M.P.E.C. 2018-V164                               Issued 2018 Nov. 12, 00:09 UT
    
         The Minor Planet Electronic Circulars contain information on unusual
             minor planets and routine data on comets.  They are published
        on behalf of Division F of the International Astronomical Union by the
              Minor Planet Center, Smithsonian Astrophysical Observatory,
                              Cambridge, MA 02138, U.S.A.
    
                 Prepared using the Tamkin Foundation Computer Network
    
                                  MPC@CFA.HARVARD.EDU
                URL https://www.minorplanetcenter.net/    ISSN 1523-6714
    
                                      2004 VV131
    
    Observations:
         K04VD1V*@C2004 11 09.37776 02 24 22.56 +13 56 25.9          23.3 gcEV164568
         K04VD1V @C2004 11 09.40420 02 24 22.43 +13 56 25.3          23.3 gcEV164568
         K04VD1V @C2004 11 09.43023 02 24 22.32 +13 56 24.9          23.3 gcEV164568
         K04VD1V @C2004 11 10.29255 02 24 18.62 +13 56 06.8          23.3 gcEV164568
         K04VD1V @C2005 01 05.26333 02 21 24.64 +13 42 19.0          23.1 icEV164568
         K04VD1V @C2005 01 05.33301 02 21 24.55 +13 42 18.3          23.1 icEV164568
         K04VD1V @C2005 10 25.49229 02 29 49.54 +14 25 06.5          23.5 rcEV164568
         K04VD1V @C2005 10 25.53041 02 29 49.34 +14 25 05.7          23.3 rcEV164568
         K04VD1V @C2005 10 25.56395 02 29 49.20 +14 25 05.0          23.1 rcEV164568
         K04VD1V @C2005 10 26.53384 02 29 44.98 +14 24 45.1          22.9 rcEV164568
         K04VD1V [C2006 10 21.97371 02 34 26.88 +14 49 21.2                cEV164950
         K04VD1V [C2006 10 22.05693 02 34 26.51 +14 49 19.4                cEV164950
         K04VD1V [C2006 10 22.13437 02 34 26.18 +14 49 17.9                cEV164950
         K04VD1V @C2015 09 06.61892 03 16 15.969+18 08 03.44         23.4 wqEV164568
         K04VD1V @C2015 09 12.50905 03 16 07.120+18 07 31.35         23.3 wqEV164568
         K04VD1V @C2015 10 07.53854 03 15 00.899+18 03 24.23         23.1 wqEV164568
         K04VD1V @C2015 10 07.59790 03 15 00.687+18 03 23.43         23.1 wqEV164568
         K04VD1V @C2015 10 09.57780 03 14 53.740+18 02 57.18         23.1 wqEV164568
         K04VD1V @C2015 11 07.33264 03 12 54.659+17 55 22.76         22.9 rqEV164568
         K04VD1V @C2015 11 07.37479 03 12 54.462+17 55 22.04         23.0 rqEV164568
         K04VD1V @C2015 11 07.41697 03 12 54.270+17 55 21.34         23.0 rqEV164568
         K04VD1V @C2015 11 10.49950 03 12 40.323+17 54 27.59         23.1 wqEV164568
         K04VD1V @C2015 11 17.34635 03 12 09.279+17 52 27.81         23.2 wqEV164568
         K04VD1V @C2015 11 17.39294 03 12 09.063+17 52 27.00         23.1 wqEV164568
         K04VD1V @C2015 12 06.35508 03 10 46.464+17 47 06.94         23.0 wqEV164568
         K04VD1V @C2015 12 06.49265 03 10 45.892+17 47 04.66         23.1 wqEV164568
         K04VD1V @C2016 01 01.34294 03 09 17.292+17 41 20.26         23.1 wqEV164568
         K04VD1V @C2016 01 07.40549 03 09 02.736+17 40 24.02         23.2 wqEV164568
         K04VD1V @C2016 01 08.25043 03 09 00.938+17 40 17.05         23.3 wqEV164568
         K04VD1V @C2016 02 05.28189 03 08 35.126+17 38 42.59         23.2 wqEV164568
         K04VD1V @C2016 02 10.30227 03 08 37.818+17 38 55.00         23.4 wqEV164568
         K04VD1V @C2016 09 06.61138 03 20 38.646+18 26 45.60               qEV164568
         K04VD1V @C2016 10 10.40808 03 19 13.950+18 21 39.38         23.2 wqEV164568
         K04VD1V @C2016 10 10.46643 03 19 13.734+18 21 38.62         23.3 wqEV164568
         K04VD1V @C2016 11 02.53154 03 17 39.292+18 15 48.28         23.2 wqEV164568
         K04VD1V @C2016 11 02.53733 03 17 39.260+18 15 48.19         23.2 wqEV164568
         K04VD1V @C2016 11 04.40663 03 17 30.925+18 15 16.99         23.1 wqEV164568
         K04VD1V @C2016 11 04.41248 03 17 30.896+18 15 16.86         23.1 wqEV164568
         K04VD1V @C2016 12 24.30698 03 14 02.655+18 02 09.90         23.2 wqEV164568
         K04VD1V @C2016 12 24.32550 03 14 02.593+18 02 09.66         23.2 wqEV164568
         K04VD1V @C2017 01 02.40920 03 13 36.260+18 00 29.64         23.2 wqEV164568
         K04VD1V @C2017 01 02.42780 03 13 36.209+18 00 29.48         23.2 wqEV164568
         K04VD1V @C2017 01 26.29981 03 12 57.431+17 58 04.51         23.2 wqEV164568
    
    Observer details:
    568 Mauna Kea.  Observers C. L. survey, J. Kavelaars, M. T. Bannister,
        J. J. Kavelaars, B. J. Gladman, J.-M. Petit, T. Burdullis.  Measurers
        L. Allen, B. Gladman, J.-M. Petit, J. Kavelaars, I. Murray, S. D. J. Gwyn,
        Y.-T. Chen, M. Alexandersen, M. Schwamb.  3.5-m Canada-France-Hawaii
        Telescope + CCD, 3.6-m Canada-France-Hawaii Telescope + CCD.
    950 La Palma.  Observers A. Campo-Bagatin, P. Benavidez.  Measurer B. Gladman.
    
    Orbital elements:
    2004 VV131
    Epoch 2019 Apr. 27.0 TT = JDT 2458600.5                 MPC
    M 153.00344              (2000.0)            P               Q
    n   0.00337529     Peri.  207.22402     -0.21478340     +0.97637961
    a  44.0144907      Node    50.38276     -0.89043354     -0.18589036
    e   0.0764517      Incl.    1.74611     -0.40124332     -0.11012550
    P 292              H    6.4           G   0.15           U   2
    Residuals in seconds of arc
    041109 568  0.1+  0.1+    151007 568  0.0   0.0     160210 568  0.0   0.0
    041109 568  0.1-  0.0     151007 568  0.1-  0.0     160906 568  0.1-  0.0
    041109 568  0.0   0.2+    151009 568  0.1+  0.0     161010 568  0.0   0.0
    041110 568  0.3+  0.1+    151107 568  0.0   0.1+    161010 568  0.0   0.0
    050105 568  0.1-  0.2-    151107 568  0.0   0.1+    161102 568  0.0   0.0
    050105 568  0.1-  0.5-    151107 568  0.0   0.1+    161102 568  0.1-  0.0
    051025 568  0.3+  0.0     151110 568  0.0   0.0     161104 568  0.0   0.0
    051025 568  0.2-  0.0     151117 568  0.0   0.0     161104 568  0.0   0.0
    051025 568  0.0   0.0     151117 568  0.0   0.0     161224 568  0.0   0.0
    051026 568  0.2+  0.3+    151206 568  0.0   0.0     161224 568  0.0   0.0
    061021 950  0.1-  0.0     151206 568  0.0   0.1-    170102 568  0.0   0.0
    061022 950  0.2-  0.1-    160101 568  0.1+  0.0     170102 568  0.0   0.0
    061022 950  0.1-  0.1-    160107 568  0.1+  0.0     170126 568  0.1-  0.0
    150906 568  0.1+  0.0     160108 568  0.0   0.0
    150912 568  0.0   0.0     160205 568  0.0   0.0
    
    Ephemeris:
    2004 VV131               a,e,i = 44.01, 0.08, 2                  q = 40.650
    Date    TT    R. A. (2000) Decl.     Delta      r     Elong.  Phase     V
    2018 10 13    03 27 59.4 +18 58 04  46.2249 47.0454   145.0     0.7    23.2
    ...
    2018 10 28    03 26 59.8 +18 54 36  46.1110 47.0466   160.1     0.4    23.2
    ...
    2018 11 05    03 26 24.8 +18 52 32  46.0759 47.0472   168.3     0.2    23.1
    ...
    2018 11 11    03 25 57.6 +18 50 56  46.0621 47.0477   174.4     0.1    23.1
    2018 11 12    03 25 53.1 +18 50 40  46.0609 47.0477   175.4     0.1    23.1
    2018 11 13    03 25 48.5 +18 50 24  46.0600 47.0478   176.4     0.1    23.1
    ...
    2018 11 19    03 25 21.0 +18 48 46  46.0609 47.0483   177.4     0.1    23.1
    ...
    2018 11 27    03 24 44.8 +18 46 36  46.0793 47.0489   169.2     0.2    23.1
    ...
    2018 12 12    03 23 40.5 +18 42 44  46.1654 47.0501   153.7     0.5    23.2
    
    A. U. Tomatic                (C) Copyright 2018 MPC           M.P.E.C. 2018-V164
    

    Read MPEC 2018-V163 Read MPEC 2018-V165


    MPEC number:

    Enter an MPEC number in one of the following forms:

    • 1997-B01 (the full form)
    • J97B01 (the packed version of the full form)
    • B01 (the abbreviated form)